Wind_Speed
41 41 41 42 43 43 44 45 45 46 47 48 49 50 52 54 55 57 59 60 61 62 63 64 65 66 67 67 68 69 70 71 71 69 71 73 76 78 80 82 84 85 87
43 43 43 44 44 45 45 46 46 47 48 49 51 53 54 56 58 59 60 61 62 63 64 65 66 67 68 68 69 70 72 73 75 75 76 78 80 83 84 85 87 89 90
43 44 44 45 45 46 46 46 47 49 50 52 54 56 57 59 60 61 62 63 64 65 65 66 67 68 69 70 71 72 74 76 79 81 82 83 85 87 88 88 89 91 91
44 44 45 45 46 46 47 49 50 52 53 55 57 58 59 60 61 62 63 64 65 65 66 67 68 69 70 71 73 76 78 80 83 85 86 88 89 90 91 92 91 91 91
45 46 46 47 48 49 51 52 54 56 57 58 59 60 61 62 63 63 64 65 65 66 67 68 70 71 73 75 77 79 82 84 86 88 89 91 92 93 93 94 93 91 90
48 48 49 50 52 54 55 57 58 59 60 61 62 62 63 63 64 64 65 65 66 67 69 70 72 73 75 77 80 83 85 88 89 91 92 94 94 95 94 93 93 91 89
51 52 53 55 57 58 59 59 60 61 61 62 62 63 64 64 64 64 65 66 67 69 71 72 74 76 79 81 83 86 88 91 93 94 95 95 94 94 94 92 90 88 86
55 56 57 58 59 60 60 61 61 62 62 63 63 64 64 64 64 65 66 68 70 71 73 75 77 80 83 85 87 88 90 92 93 94 94 94 93 92 91 89 87 84 80
58 58 59 60 61 61 61 62 62 62 63 63 63 63 64 64 65 66 68 70 72 74 76 79 81 83 86 88 89 90 91 91 92 92 92 92 91 90 88 86 83 79 74
59 60 61 61 61 61 62 62 62 62 62 62 62 63 64 65 67 69 71 72 74 77 79 81 84 86 88 89 90 91 91 91 91 91 90 89 88 86 84 81 78 73 68
60 60 60 60 61 61 61 61 61 60 61 62 63 64 66 68 70 72 74 75 77 80 82 84 86 88 89 90 90 91 91 91 90 89 88 86 85 82 78 74 70 66 62
60 60 60 60 60 60 60 59 59 60 61 63 65 67 69 71 73 75 77 79 81 82 84 85 87 88 89 89 89 89 89 89 89 87 85 83 80 76 71 67 62 59 55
59 58 58 58 58 58 58 58 59 61 63 65 67 69 71 73 75 77 79 81 82 83 84 86 87 87 87 87 87 87 87 87 86 84 81 78 74 69 64 59 55 52 49
56 56 55 56 56 57 58 60 62 64 66 67 70 72 74 76 77 79 80 81 82 83 84 84 85 85 85 85 85 85 85 84 83 80 76 72 67 62 57 53 49 46 44
54 54 55 56 57 58 60 62 64 66 68 70 72 73 75 77 78 80 81 81 82 83 83 83 83 83 83 83 83 83 82 81 79 75 71 65 60 56 52 48 45 43 41
54 55 56 57 59 61 63 65 67 69 71 72 74 75 77 78 79 80 81 81 82 82 82 82 82 82 82 81 81 80 79 77 74 70 65 60 55 51 48 45 43 42 41
56 57 59 60 62 64 66 68 69 71 73 74 75 76 77 78 79 80 80 81 81 81 80 80 80 80 79 78 78 77 76 73 69 64 59 54 51 48 45 43 42 41 41
59 61 62 64 66 67 69 70 71 72 73 75 76 77 77 78 78 79 79 79 79 79 79 78 78 77 76 76 75 74 72 69 65 60 55 51 47 45 43 42 42 41 41
63 65 66 67 68 70 71 72 72 73 74 75 76 76 76 77 77 77 77 77 77 76 76 76 75 74 74 73 72 70 68 64 60 55 51 47 45 44 43 42 42 41 41
67 68 69 70 70 71 72 73 73 74 74 74 75 75 75 75 75 75 74 74 74 74 74 74 73 72 71 70 68 66 64 60 56 52 48 45 44 43 42 42 41 41 41
69 70 71 71 72 72 73 73 73 73 73 73 74 74 74 73 73 73 73 73 73 72 72 71 71 70 68 67 65 63 61 57 53 49 46 44 43 42 42 42 41 41 41
71 71 72 72 72 73 73 73 73 73 73 73 73 72 72 72 71 71 71 72 71 70 69 69 68 67 65 64 62 61 58 55 50 47 45 44 43 42 42 42 42 42 42
72 72 73 73 73 73 73 72 72 72 71 71 71 71 71 70 70 70 70 69 68 68 67 66 65 64 63 62 60 58 55 51 48 45 44 43 42 41 42 42 42 42 42
73 73 73 73 73 72 72 72 71 71 71 71 70 70 69 68 68 67 67 66 66 66 66 65 63 62 61 60 58 56 52 48 45 44 43 42 42 41 41 41 41 41 41
74 73 73 73 72 72 72 71 71 70 70 69 68 68 67 66 65 65 65 65 65 65 64 62 61 61 59 58 56 54 50 47 45 43 42 41 41 41 41 41 41 40 40
74 73 73 72 72 71 71 70 69 69 68 67 66 65 64 64 64 65 65 65 64 63 61 60 60 59 58 57 55 52 48 46 44 42 41 40 40 40 40 40 40 40 41
Wind_Direction
263 265 267 268 270 271 273 275 277 279 281 283 285 287 289 290 291 292 293 294 295 296 297 298 299 300 300 301 302 302 303 303 303 304 303 303 303 302 302 301 301 300 299
262 264 265 267 269 270 272 275 277 280 282 284 286 288 289 290 291 292 293 294 295 296 297 298 299 300 300 301 302 302 303 303 303 304 304 304 303 303 302 302 302 301 301
261 262 264 266 268 271 273 276 278 281 283 285 287 288 290 290 291 292 293 294 294 295 297 298 299 300 300 301 302 302 303 303 304 305 305 305 304 304 303 303 302 302 301
260 262 264 266 269 272 275 277 280 282 284 286 287 289 289 290 291 292 293 293 295 296 297 298 299 300 301 301 302 303 304 304 305 305 306 306 305 304 304 304 303 302 302
261 263 265 268 271 274 277 280 282 284 286 287 288 288 289 290 291 292 293 294 295 296 298 299 300 301 301 302 303 304 304 305 305 305 306 306 306 305 305 305 304 303 303
263 265 268 271 274 277 279 281 283 285 286 287 287 288 289 290 291 292 293 294 296 297 299 300 301 301 302 303 304 305 305 306 306 306 306 307 307 306 306 306 306 305 305
266 269 271 274 276 279 280 282 283 284 285 286 287 288 289 290 291 292 294 295 297 298 299 300 301 302 303 304 305 306 306 306 307 307 308 308 308 307 307 307 307 307 307
268 271 273 275 277 279 280 282 283 284 285 286 287 288 289 290 291 293 295 296 298 299 300 300 302 303 304 304 305 305 306 306 307 307 308 309 309 309 309 309 309 308 308
270 272 273 275 277 279 280 281 282 284 285 286 286 288 289 291 292 294 296 297 298 299 300 301 302 303 303 304 304 305 306 307 308 308 309 309 310 310 310 309 309 309 308
270 272 274 276 277 278 280 281 282 283 284 285 287 288 290 291 293 295 296 297 298 299 300 301 302 303 303 304 305 306 307 307 308 309 310 310 310 310 310 309 309 309 309
271 273 274 275 277 278 279 280 281 282 284 285 287 288 290 292 293 295 296 297 298 299 300 301 302 303 304 305 306 307 308 309 309 310 310 310 310 310 309 308 308 308 309
271 273 274 275 276 277 278 280 281 282 284 285 287 289 291 292 293 295 296 297 298 299 300 301 302 303 304 306 307 308 309 310 311 311 311 311 310 309 308 308 307 308 308
271 272 273 274 275 276 278 279 281 283 284 286 288 290 291 292 294 295 296 298 299 300 301 301 303 304 305 306 308 309 310 311 312 312 311 311 310 309 307 307 306 306 307
270 271 272 273 275 277 278 280 281 283 285 287 288 290 291 293 294 295 296 298 299 300 301 302 303 305 306 307 309 310 311 312 313 313 312 311 309 308 307 306 305 305 305
270 271 273 274 276 277 279 281 282 284 285 287 289 290 291 293 294 295 296 298 299 300 301 302 304 306 307 309 310 311 312 313 313 313 312 310 308 307 305 304 303 303 304
271 272 274 275 277 279 280 282 283 285 286 287 289 290 291 292 294 295 297 298 299 301 302 304 305 307 308 309 311 312 313 314 314 312 311 309 306 304 303 302 302 302 302
272 274 275 277 278 280 281 282 284 285 286 287 289 290 291 293 294 296 297 299 300 302 303 305 306 308 309 310 312 313 314 314 313 311 309 307 305 303 301 300 300 301 301
273 275 276 277 279 280 281 282 284 285 286 288 289 290 291 293 295 296 298 299 301 303 304 306 308 309 310 311 313 314 314 314 312 310 307 305 303 301 300 299 299 299 299
274 275 277 278 279 280 281 283 284 285 286 288 289 290 292 294 295 297 298 300 302 303 305 307 308 310 311 312 313 314 314 313 311 309 306 303 301 300 300 299 299 298 298
275 276 277 279 280 281 282 283 284 285 286 288 289 291 292 294 296 297 299 301 303 304 306 307 309 310 312 313 313 313 313 312 310 307 304 301 300 300 300 300 299 298 298
276 277 278 279 280 281 282 283 284 285 287 288 289 291 293 294 296 298 300 301 303 305 306 308 309 311 311 312 312 312 312 311 308 305 302 300 299 299 299 299 299 299 298
276 277 278 279 280 281 282 283 284 285 287 288 290 291 293 295 296 298 300 302 304 305 307 308 309 310 311 311 311 311 311 309 307 304 301 300 299 299 299 299 299 299 299
275 276 277 278 279 280 281 283 284 285 287 288 290 291 293 295 297 299 301 303 304 305 306 308 308 309 310 310 310 310 309 307 304 302 301 300 299 299 299 299 299 299 299
275 276 277 278 279 280 281 282 284 285 286 288 290 291 293 295 297 299 301 302 304 305 306 307 307 308 309 309 310 310 308 305 303 301 300 299 298 299 299 300 300 300 300
274 275 276 277 278 279 281 282 283 285 286 288 289 291 293 295 297 299 300 302 303 304 304 305 305 306 307 307 308 307 305 303 301 300 300 299 299 299 300 300 300 301 301
273 274 275 276 277 279 280 281 282 284 286 288 289 291 293 295 296 298 299 301 302 302 303 303 304 305 305 306 306 304 302 301 300 299 299 299 300 300 301 301 301 300 301
Height
5798 5798 5798 5798 5797 5796 5794 5793 5791 5789 5787 5784 5781 5778 5774 5770 5766 5761 5756 5751 5746 5741 5736 5730 5724 5718 5712 5705 5699 5692 5684 5677 5674 5674 5666 5657 5648 5640 5632 5622 5612 5603 5594
5788 5788 5788 5787 5786 5785 5784 5782 5780 5778 5776 5773 5770 5766 5762 5758 5753 5749 5744 5738 5733 5728 5722 5716 5710 5704 5698 5691 5684 5677 5670 5662 5655 5652 5648 5638 5629 5619 5610 5601 5591 5580 5569
5777 5777 5777 5776 5775 5774 5773 5771 5769 5766 5764 5761 5757 5754 5750 5745 5740 5735 5730 5725 5719 5714 5708 5702 5696 5690 5683 5676 5669 5662 5654 5645 5637 5630 5625 5617 5607 5596 5587 5578 5568 5557 5545
5766 5765 5765 5765 5764 5763 5761 5759 5757 5754 5751 5748 5744 5740 5736 5731 5726 5721 5716 5711 5705 5699 5693 5687 5681 5675 5668 5661 5653 5645 5637 5628 5619 5609 5602 5593 5584 5573 5561 5553 5545 5535 5523
5754 5754 5754 5753 5752 5750 5749 5746 5744 5741 5738 5734 5730 5726 5722 5717 5712 5707 5702 5696 5690 5684 5678 5672 5665 5659 5651 5644 5636 5627 5618 5609 5599 5589 5580 5570 5560 5549 5538 5526 5516 5509 5500
5742 5742 5741 5741 5739 5737 5735 5733 5730 5727 5723 5720 5716 5711 5707 5703 5698 5693 5687 5682 5676 5670 5663 5656 5649 5642 5635 5626 5617 5608 5598 5587 5577 5568 5557 5546 5535 5523 5512 5500 5489 5480 5474
5730 5729 5729 5727 5726 5724 5721 5718 5715 5712 5708 5705 5700 5696 5692 5688 5683 5678 5672 5667 5661 5654 5648 5641 5633 5625 5617 5609 5599 5589 5577 5565 5554 5544 5533 5521 5511 5500 5488 5478 5465 5453 5443
5717 5716 5715 5713 5711 5709 5706 5704 5700 5697 5693 5689 5685 5681 5677 5672 5667 5662 5657 5651 5645 5638 5631 5624 5616 5607 5598 5590 5581 5571 5559 5547 5535 5524 5512 5499 5486 5474 5463 5452 5441 5432 5423
5703 5701 5700 5698 5696 5694 5691 5688 5685 5681 5678 5674 5670 5665 5661 5657 5652 5647 5642 5635 5629 5621 5614 5605 5597 5589 5579 5570 5562 5552 5542 5529 5516 5503 5490 5477 5465 5453 5441 5430 5420 5410 5403
5687 5686 5684 5683 5681 5678 5675 5672 5669 5666 5662 5658 5654 5650 5646 5641 5636 5631 5625 5619 5613 5605 5596 5587 5578 5569 5559 5549 5539 5530 5520 5509 5498 5486 5473 5459 5446 5434 5422 5410 5400 5391 5383
5671 5670 5668 5667 5665 5662 5660 5657 5654 5650 5647 5643 5639 5635 5630 5625 5619 5614 5607 5601 5594 5587 5578 5569 5559 5549 5539 5528 5518 5508 5497 5487 5477 5465 5454 5441 5429 5417 5405 5394 5384 5375 5367
5655 5654 5653 5651 5649 5646 5644 5641 5638 5635 5631 5627 5623 5618 5613 5607 5602 5596 5589 5582 5575 5567 5559 5550 5540 5530 5520 5509 5498 5488 5477 5466 5455 5445 5433 5422 5411 5400 5390 5380 5371 5362 5354
5639 5638 5636 5635 5633 5631 5628 5625 5622 5619 5615 5611 5606 5601 5596 5590 5584 5577 5570 5563 5555 5547 5539 5530 5520 5510 5500 5490 5479 5468 5457 5446 5435 5425 5414 5403 5393 5383 5374 5366 5358 5351 5344
5623 5622 5620 5619 5617 5615 5612 5609 5606 5603 5599 5594 5589 5584 5578 5572 5565 5558 5551 5544 5536 5527 5519 5510 5500 5491 5481 5471 5460 5449 5438 5427 5416 5406 5395 5385 5376 5367 5360 5353 5347 5341 5336
5607 5606 5605 5603 5601 5599 5596 5593 5589 5585 5581 5577 5571 5566 5560 5554 5546 5539 5532 5525 5517 5509 5500 5492 5482 5473 5463 5452 5442 5431 5420 5409 5398 5387 5378 5369 5361 5353 5347 5341 5336 5331 5326
5591 5590 5588 5587 5584 5582 5579 5575 5571 5567 5562 5557 5552 5547 5540 5534 5527 5520 5512 5505 5497 5489 5480 5472 5463 5454 5444 5434 5424 5413 5402 5392 5381 5371 5362 5354 5347 5340 5335 5330 5325 5320 5316
5575 5573 5572 5569 5567 5564 5561 5557 5553 5548 5543 5538 5532 5527 5521 5514 5508 5500 5493 5485 5477 5469 5461 5452 5444 5435 5425 5415 5405 5395 5385 5375 5365 5356 5348 5340 5334 5328 5323 5319 5314 5310 5305
5557 5556 5554 5551 5549 5545 5542 5538 5534 5529 5524 5518 5513 5507 5501 5495 5488 5481 5474 5466 5458 5450 5442 5433 5425 5416 5407 5397 5388 5378 5368 5358 5349 5341 5334 5327 5322 5316 5312 5307 5303 5299 5295
5540 5538 5535 5532 5529 5526 5522 5518 5514 5509 5504 5499 5493 5487 5481 5475 5468 5462 5454 5447 5440 5432 5423 5415 5406 5398 5389 5380 5371 5361 5352 5343 5335 5327 5321 5315 5310 5305 5300 5296 5292 5288 5284
5520 5518 5516 5513 5509 5506 5502 5498 5494 5489 5484 5479 5474 5468 5462 5456 5449 5442 5436 5429 5421 5414 5405 5397 5389 5380 5372 5363 5354 5345 5337 5328 5321 5314 5308 5303 5298 5294 5289 5285 5281 5277 5273
5500 5497 5495 5492 5489 5485 5482 5478 5474 5469 5464 5459 5454 5448 5443 5437 5430 5424 5417 5410 5403 5396 5388 5380 5371 5363 5355 5347 5338 5330 5322 5314 5307 5301 5296 5291 5287 5282 5278 5274 5269 5265 5261
5479 5476 5474 5471 5468 5464 5461 5457 5453 5449 5444 5439 5434 5428 5423 5418 5411 5405 5399 5392 5385 5378 5370 5363 5355 5347 5339 5331 5323 5316 5308 5301 5295 5289 5284 5279 5275 5271 5267 5262 5258 5254 5250
5457 5455 5452 5450 5447 5443 5440 5436 5432 5428 5424 5419 5414 5409 5404 5399 5393 5387 5381 5374 5367 5360 5353 5346 5338 5330 5323 5316 5309 5302 5295 5288 5282 5277 5272 5268 5264 5259 5255 5251 5247 5243 5238
5435 5433 5430 5428 5425 5422 5419 5415 5412 5408 5404 5400 5395 5390 5385 5380 5374 5369 5362 5356 5350 5343 5336 5329 5322 5315 5308 5301 5294 5288 5281 5275 5270 5266 5261 5257 5252 5248 5244 5240 5236 5231 5227
5413 5411 5409 5406 5404 5401 5398 5395 5391 5388 5384 5380 5376 5371 5366 5361 5356 5351 5345 5339 5333 5326 5319 5313 5306 5300 5294 5287 5281 5274 5268 5263 5258 5254 5250 5245 5241 5237 5233 5228 5224 5220 5216
5391 5389 5387 5385 5382 5380 5377 5374 5371 5368 5364 5361 5357 5352 5348 5343 5338 5333 5328 5322 5316 5310 5303 5297 5291 5285 5279 5273 5267 5261 5255 5250 5246 5242 5238 5234 5230 5226 5222 5217 5213 5209 5205